Погода в Мамашире

Россия / Республика Татарстан     56°22′03″N   50°51′00″E
темп.,
°C
ветер,
м/с
пор.,
м/с
влажн.,
%
обл.,
%
осадки,
мм/ч
давл.,
гПа
погр.,
м
19 апреля, пн
пн1900:00+2всв61355100 0.0 1028616
03:000всв61258100 0.0 1029536
06:000всв7135540 0.0 1030641
09:00+3в9113611 0.0 10311180
12:00+6в911286 0.0 10301519
15:00+6в810270 0.0 10301657
18:00+4в611360 0.0 1031618
21:00+1всв513470 0.0 1032370
20 апреля, вт
вт2000:00−1в412550 0.0 1033333
03:00−1в411550 0.0 1033275
06:000в510530 0.0 1034323
09:00+5вюв68330 0.0 10341084
12:00+7вюв67300 0.0 10331285
15:00+8вюв67290 0.0 10311342
18:00+6вюв48420 0.0 1031199
21:00+2вюв3105480 0.0 1031186
21 апреля, ср
ср2100:00+1вюв3105925 0.0 1030176
03:00+1вюв41257100 0.0 1029231
06:00+2юв61552100 0.0 1029559
09:00+6юв91540100 0.0 1027851
12:00+10юв91332100 0.0 10251177
15:00+9ююв81335100 0.0 10251187
18:00+8ююв71445100 0.0 1024891
21:00+4ю81681100 0.3 1025911
22 апреля, чт
чт2200:00+3ююв81596100 0.8 1025751
03:00+3ююв71297100 1.3 1025705
06:00+4ю61297100 0.1 1025713
09:00+3ююв61196100 1.3 1025601
12:00+2ююв61096100 1.7 1026449
15:00+3ююв51197100 1.9 1026544
18:00+4ююв61291100 0.0 1027499
21:00+4ю61294100 0.0 1027477
23 апреля, пт
пт2300:00+4ю4996100 0.0 1027332
03:00+4ююв4897100 0.1 1028239
06:00+4ююв4797100 0.1 1029248
09:00+5ююв4693100 0.1 1029336
12:00+10ю346941 0.0 1028868
15:00+12юв4359100 0.1 10271262
18:00+9юв4781100 0.0 1027318
21:00+7юв378762 0.0 1027229